User: anonymous   Login
Location: Prague
(50.0830°N, 14.4670°E)
Time: 04:39:09
(UTC+01:00)
Language:

DIWATA 2B (PO-101) - Orbit

View from above orbital plane
View from above orbital plane
View from above satellite
View from above satellite

Ground track
Ground track

The orbit data is extracted from the following two-line orbital elements,

1 43678U 18084H   20329.73106191  .00000046  00000-0  10308-4 0  9999
2 43678  97.9022  88.3028 0010327  16.2896 343.8648 14.91673819112912
Epoch (UTC): 24 November 2020 17:32:43
Eccentricity: 0.0010327
inclination: 97.9022°
perigee height: 585 km
apogee height: 600 km
right ascension of ascending node: 88.3028°
argument of perigee: 16.2896°
revolutions per day: 14.91673819
mean anomaly at epoch: 343.8648°
orbit number at epoch: 11291

The dashed part of the orbit path shows where the satellite is in the earth's shadow,  

DLR